{"data":{"norad_id":58252,"epoch":"2026-09-20T01:32:13.265952Z","epoch_age_seconds":181277,"freshness":"STALE","line1":"1 58252U 23171Y   26263.06404243 -.00000129  00000+0  48258-5 0  9992","line2":"2 58252  43.0043 267.3202 0001401 265.4428  94.6264 15.27577291159469","mean_motion":15.27577291,"eccentricity":0.0001401,"inclination_deg":43.0043,"raan_deg":267.3202,"arg_perigee_deg":265.4428,"mean_anomaly_deg":94.6264,"bstar":4.8258e-6,"rev_number":15946,"period_min":94.26691588596,"perigee_km":482.09595446369,"apogee_km":484.01846108071,"semimajor_km":6861.1942077722,"source":"CELESTRAK","updated_at":"2026-09-21T09:00:33.840621Z"}}